Tracking 29892 objects as of 21-Nov-2024
HD Live streaming from Space Station
objects crossing your sky now

STARLINK-31258

Track STARLINK-31258 now!
10-day predictions
STARLINK-31258 is classified as:


NORAD ID: 58829
Int'l Code: 2024-017D
Perigee: 469.7 km
Apogee: 471.0 km
Inclination: 53.2 °
Period: 93.9 minutes
Semi major axis: 6841 km
RCS: Unknown
Launch date: January 24, 2024
Source: United States (US)
Launch site: AIR FORCE WESTERN TEST RANGE (AFWTR)
Your satellite tracking list
Your tracking list is empty




NASA's NSSDC Master Catalog

Two Line Element Set (TLE):
1 58829U 24017D   24325.82135035  .00001033  00000-0  41906-4 0  9990
2 58829  53.1633 252.5692 0000909  55.5677 304.5411 15.34229403 47405
Source of the keplerian elements: AFSPC